Imperial, NE

9:54 PM MDT on March 26, 2017 (GMT -0600)
Imperial Municipal

Weather History for KIML - October, 2014

Change the Weather History Date:

Friday, October 3, 2014

  Actual Average Record
Temperature  
Mean Temperature 47 °F 57 °F  
Max Temperature 56 °F 71 °F 94 °F (2012)
Min Temperature 37 °F 42 °F 24 °F (1899)
Degree Days  
Heating Degree Days 18 9  
Month to date heating degree days 32 26  
Cooling Degree Days 0 1  
Month to date cooling degree days 0 3  
Year to date cooling degree days 955 960  
Moisture  
Dew Point 28 °F    
Average Humidity 52    
Maximum Humidity 79    
Minimum Humidity 24    
Precipitation  
Precipitation 0.01 in 0.04 in 0.87 in (1990)
Sea Level Pressure  
Sea Level Pressure 30.30 in    
Wind  
Wind Speed 15 mph (NW)    
Max Wind Speed 29 mph    
Max Gust Speed 40 mph    
Visibility 10 miles    
Events Rain    
T = Trace of Precipitation, MM = Missing Value Source: NWS Daily Summary

Daily Weather History Graph

Daily Weather History Graph

Search for Another Location

Airport or City:

Trip Planner

Search our weather history database for the weather conditions in past years. The results will help you decide how hot, cold, wet, or windy it might be!

Date:

Astronomy

Oct. 03, 2014 Rise Set
Actual Time 6:45 AM MDT 6:25 PM MDT
Civil Twilight 6:17 AM MDT 6:52 PM MDT
Nautical Twilight 5:46 AM MDT 7:24 PM MDT
Astronomical Twilight 5:14 AM MDT 7:55 PM MDT
Moon 3:21 PM MDT (10/3) 1:06 AM MDT (10/3)
Length of Visible Light 12h 34m
Length of Day
11h 40m
Waxing Gibbous, 71% of the Moon is Illuminated
Oct 3
Waxing Gibbous
Oct 8
Full
Oct 15
Last Quarter
Oct 23
New
Oct 30
First Quarter

Hourly Weather History & Observations

Time (MDT) Temp. Windchill Dew Point Humidity Pressure Visibility Wind Dir Wind Speed Gust Speed Precip Events Conditions
12:53 AM 41.0 °F 29.5 °F 34.0 °F 76% 30.24 in 10.0 mi North 32.2 mph 39.1 mph N/A   Overcast
1:17 AM 39.9 °F 29.2 °F 35.1 °F 83% 30.25 in 10.0 mi North 25.3 mph 29.9 mph 0.01 in Rain Light Rain
1:35 AM 39.9 °F 31.4 °F 35.1 °F 83% 30.26 in 10.0 mi North 16.1 mph - 0.01 in   Overcast
1:53 AM 41.0 °F 32.2 °F 36.0 °F 82% 30.27 in 10.0 mi North 18.4 mph 25.3 mph 0.01 in   Overcast
2:53 AM 41.0 °F 32.2 °F 35.1 °F 79% 30.27 in 10.0 mi NNW 18.4 mph - 0.00 in   Overcast
3:53 AM 39.9 °F 30.5 °F 34.0 °F 79% 30.28 in 10.0 mi NNW 19.6 mph - N/A   Overcast
4:53 AM 39.9 °F 34.5 °F 34.0 °F 79% 30.32 in 10.0 mi NNW 8.1 mph - N/A   Overcast
5:53 AM 39.9 °F 33.4 °F 30.9 °F 70% 30.34 in 10.0 mi NW 10.4 mph - N/A   Mostly Cloudy
6:53 AM 39.0 °F 30.6 °F 28.9 °F 67% 30.36 in 10.0 mi NNW 15.0 mph - N/A   Partly Cloudy
7:53 AM 39.0 °F 30.3 °F 27.0 °F 62% 30.38 in 10.0 mi NW 16.1 mph - N/A   Clear
8:53 AM 41.0 °F 30.7 °F 27.0 °F 57% 30.39 in 10.0 mi NNW 25.3 mph - N/A   Clear
9:53 AM 45.0 °F 36.2 °F 25.0 °F 46% 30.38 in 10.0 mi NNW 24.2 mph 32.2 mph N/A   Clear
10:53 AM 48.9 °F - 28.0 °F 44% 30.36 in 10.0 mi NW 18.4 mph 27.6 mph N/A   Clear
11:53 AM 51.1 °F - 24.1 °F 35% 30.35 in 10.0 mi NW 26.5 mph 32.2 mph N/A   Clear
12:53 PM 52.0 °F - 23.0 °F 32% 30.32 in 10.0 mi NW 20.7 mph 31.1 mph N/A   Clear
1:53 PM 53.1 °F - 23.0 °F 31% 30.29 in 10.0 mi NW 17.3 mph 29.9 mph N/A   Clear
2:53 PM 55.0 °F - 21.9 °F 28% 30.27 in 10.0 mi NNW 23.0 mph 32.2 mph N/A   Clear
3:53 PM 55.9 °F - 19.0 °F 24% 30.26 in 10.0 mi NNW 25.3 mph 31.1 mph N/A   Clear
4:53 PM 55.0 °F - 19.9 °F 25% 30.26 in 10.0 mi NNW 21.9 mph 28.8 mph N/A   Clear
5:53 PM 53.1 °F - 21.0 °F 29% 30.25 in 10.0 mi NNW 16.1 mph - N/A   Clear
6:53 PM 48.0 °F - 24.1 °F 39% 30.27 in 10.0 mi West 6.9 mph - N/A   Clear
7:53 PM 45.0 °F 41.2 °F 26.1 °F 48% 30.28 in 10.0 mi NW 6.9 mph - N/A   Clear
8:53 PM 41.0 °F 37.1 °F 28.9 °F 62% 30.29 in 10.0 mi West 5.8 mph - N/A   Clear
9:53 PM 39.9 °F 37.8 °F 28.9 °F 65% 30.27 in 10.0 mi WNW 3.5 mph - N/A   Clear
10:53 PM 39.2 °F 35.0 °F 28.4 °F 65% 30.23 in 10.0 mi WNW 5.8 mph - N/A   Clear
11:53 PM 39.0 °F 34.8 °F 28.0 °F 65% 30.25 in 10.0 mi WNW 5.8 mph - N/A   Clear